Flag for U.S.A. Weather past 2 weeks in Mountain View, California, U.S.A.

Now
74 °F

Sunny.


Feels Like: 76 °F
Forecast: 62 / 75 °F
Wind: 13 mph from North

Location: Moffett Field

Current Time: Aug 1, 2015 at 8:03:01 PM

Latest Report: Aug 1, 2015 at 6:56 PM


Visibility: 10 mi

Pressure: 29.94 "Hg

Humidity: 67%

Dew point: 62 °F

Location of Mountain ViewLocation

Historic Weather in Mountain View — Graph

°F

Mountain View temperature yesterday

Maximum temperature yesterday: 75 °F (at 3:56 PM)
Minimum temperature yesterday: 64 °F (at 12:56 AM)
Average temperature yesterday: 68 °F

Past Weeks' High & Low Weather Summary

 TemperatureHumidityPressure
High90 °F (Jul 28, 2:56 PM)90% (Jul 25, 3:56 AM)30.14 "Hg (Jul 25, 3:56 AM)
Low56 °F (Jul 24, 4:56 AM)32% (Jul 28, 1:56 PM)29.79 "Hg (Jul 17, 6:56 PM)
Average69 °F67%29.97 "Hg
* Reported Jul 17 6:56 PM — Aug 1 6:56 PM, Mountain View, Weather by CustomWeather, © 2015

Note: Actual official high and low records may vary slightly from our data, if they occured in-between our weather recording intervals... More about our weather records

Advertising

Mountain View weather history for previous 24 hours

 ConditionsComfort  
Time TempWeatherWind HumidityBarometerVisibility
6:56 PM
Sat, Aug 1
74 °FSunny.13 mph67%29.94 "Hg10 mi
5:56 PM75 °FSunny.17 mph62%29.93 "Hg10 mi
4:56 PM76 °FSunny.15 mph60%29.94 "Hg10 mi
3:56 PM77 °FSunny.15 mph54%29.94 "Hg10 mi
2:56 PM74 °FSunny.12 mph60%29.96 "Hg10 mi
1:56 PM75 °FSunny.12 mph60%29.98 "Hg10 mi
12:56 PM75 °FSunny.12 mph60%30.00 "Hg10 mi
11:56 AM74 °FSunny.10 mph62%30.02 "Hg10 mi
10:56 AM72 °FPassing clouds.5 mph64%30.03 "Hg10 mi
9:56 AM70 °FOvercast.5 mph71%30.03 "Hg10 mi
8:56 AM67 °FOvercast.3 mph76%30.03 "Hg10 mi
7:56 AM66 °FOvercast.5 mph78%30.03 "Hg10 mi
6:56 AM65 °FOvercast.3 mph81%30.02 "Hg10 mi
5:56 AM65 °FOvercast.3 mph81%30.00 "Hg10 mi
4:56 AM64 °FOvercast.No wind84%29.99 "Hg10 mi
3:56 AM65 °FOvercast.3 mph81%29.99 "Hg10 mi
2:56 AM65 °FOvercast.3 mph81%29.99 "Hg10 mi
1:56 AM64 °FPassing clouds.5 mph84%29.99 "Hg10 mi
12:56 AM64 °FClear.5 mph84%30.00 "Hg10 mi
11:56 PM
Fri, Jul 31
64 °FClear.3 mph81%30.01 "Hg10 mi
10:56 PM65 °FClear.3 mph81%30.01 "Hg10 mi
9:56 PM66 °FClear.6 mph78%30.01 "Hg10 mi
8:56 PM67 °FSunny.14 mph73%30.00 "Hg10 mi
Weather by CustomWeather, © 2015

See weather overviewHow to use our weather pages